Time,TemperatureF,DewpointF,PressureIn,WindDirection,WindDirectionDegrees,WindSpeedMPH,WindSpeedGustMPH,Humidity,HourlyPrecipIn,Conditions,Clouds,dailyrainin,SoftwareType,DateUTC
2013-02-15 00:01:00,13.2,4.9,30.22,North,359,3.0,3.0,69,0.00,,,0.00,VWS V14.01,2013-02-15 06:01:00,
2013-02-15 00:06:00,13.1,4.8,30.22,West,281,0.0,3.0,69,0.00,,,0.00,VWS V14.01,2013-02-15 06:06:00,
2013-02-15 00:11:00,12.8,4.2,30.22,West,281,0.0,3.0,68,0.00,,,0.00,VWS V14.01,2013-02-15 06:11:00,
2013-02-15 00:16:00,12.6,4.4,30.22,West,278,2.0,5.0,69,0.00,,,0.00,VWS V14.01,2013-02-15 06:16:00,
2013-02-15 00:21:00,12.4,4.2,30.23,West,279,0.0,5.0,69,0.00,,,0.00,VWS V14.01,2013-02-15 06:21:00,
2013-02-15 00:26:00,12.1,3.9,30.23,West,278,1.0,5.0,69,0.00,,,0.00,VWS V14.01,2013-02-15 06:26:00,
2013-02-15 00:31:00,12.0,3.8,30.23,WSW,240,2.0,4.0,69,0.00,,,0.00,VWS V14.01,2013-02-15 06:31:00,
2013-02-15 00:36:00,11.7,3.5,30.23,WSW,244,0.0,4.0,69,0.00,,,0.00,VWS V14.01,2013-02-15 06:36:00,
2013-02-15 00:41:00,11.6,3.4,30.23,WSW,244,2.0,4.0,69,0.00,,,0.00,VWS V14.01,2013-02-15 06:41:00,
2013-02-15 00:46:00,11.3,2.8,30.23,WSW,245,3.0,5.0,68,0.00,,,0.00,VWS V14.01,2013-02-15 06:46:00,
2013-02-15 00:52:00,11.1,2.3,30.23,WSW,245,0.0,5.0,67,0.00,,,0.00,VWS V14.01,2013-02-15 06:52:00,
2013-02-15 00:57:00,10.9,2.4,30.23,WSW,245,3.0,5.0,68,0.00,,,0.00,VWS V14.01,2013-02-15 06:57:00,
2013-02-15 01:02:00,10.8,2.0,30.23,WSW,248,4.0,5.0,67,0.00,,,0.00,VWS V14.01,2013-02-15 07:02:00,
2013-02-15 01:07:00,10.7,1.9,30.23,WNW,287,3.0,6.0,67,0.00,,,0.00,VWS V14.01,2013-02-15 07:07:00,
2013-02-15 01:12:00,10.6,1.8,30.23,West,273,2.0,7.0,67,0.00,,,0.00,VWS V14.01,2013-02-15 07:12:00,
2013-02-15 01:17:00,10.5,1.4,30.23,West,263,0.0,7.0,66,0.00,,,0.00,VWS V14.01,2013-02-15 07:17:00,
2013-02-15 01:22:00,10.4,1.6,30.23,West,263,1.0,7.0,67,0.00,,,0.00,VWS V14.01,2013-02-15 07:22:00,
2013-02-15 01:27:00,10.4,1.6,30.23,West,263,0.0,7.0,67,0.00,,,0.00,VWS V14.01,2013-02-15 07:27:00,
2013-02-15 01:32:00,10.4,1.6,30.23,West,263,2.0,4.0,67,0.00,,,0.00,VWS V14.01,2013-02-15 07:32:00,
2013-02-15 01:37:00,10.3,1.5,30.23,West,264,2.0,4.0,67,0.00,,,0.00,VWS V14.01,2013-02-15 07:37:00,
2013-02-15 01:43:00,10.3,1.5,30.23,West,264,0.0,4.0,67,0.00,,,0.00,VWS V14.01,2013-02-15 07:43:00,
2013-02-15 01:48:00,10.2,1.4,30.23,WSW,256,3.0,5.0,67,0.00,,,0.00,VWS V14.01,2013-02-15 07:48:00,
2013-02-15 01:53:00,10.0,1.2,30.24,West,276,2.0,6.0,67,0.00,,,0.00,VWS V14.01,2013-02-15 07:53:00,
2013-02-15 01:58:00,9.9,1.1,30.24,West,276,0.0,6.0,67,0.00,,,0.00,VWS V14.01,2013-02-15 07:58:00,
2013-02-15 02:03:00,9.7,1.3,30.24,WNW,295,3.0,5.0,68,0.00,,,0.00,VWS V14.01,2013-02-15 08:03:00,
2013-02-15 02:08:00,9.6,1.2,30.24,NW,306,0.0,5.0,68,0.00,,,0.00,VWS V14.01,2013-02-15 08:08:00,
2013-02-15 02:13:00,9.6,1.5,30.24,WNW,303,0.0,5.0,69,0.00,,,0.00,VWS V14.01,2013-02-15 08:13:00,
2013-02-15 02:18:00,9.6,1.5,30.24,WNW,291,0.0,5.0,69,0.00,,,0.00,VWS V14.01,2013-02-15 08:18:00,
2013-02-15 02:23:00,9.6,1.8,30.24,WNW,291,0.0,5.0,70,0.00,,,0.00,VWS V14.01,2013-02-15 08:23:00,
2013-02-15 02:28:00,9.6,1.8,30.24,WNW,292,2.0,7.0,70,0.00,,,0.00,VWS V14.01,2013-02-15 08:28:00,
2013-02-15 02:34:00,9.6,1.8,30.24,WNW,292,0.0,4.0,70,0.00,,,0.00,VWS V14.01,2013-02-15 08:34:00,
2013-02-15 02:39:00,9.6,1.8,30.24,WNW,293,5.0,5.0,70,0.00,,,0.00,VWS V14.01,2013-02-15 08:39:00,
2013-02-15 02:44:00,9.5,2.0,30.25,WNW,293,1.0,5.0,71,0.00,,,0.00,VWS V14.01,2013-02-15 08:44:00,
2013-02-15 02:49:00,9.5,2.0,30.25,WNW,286,4.0,6.0,71,0.00,,,0.00,VWS V14.01,2013-02-15 08:49:00,
2013-02-15 02:54:00,9.4,1.9,30.25,WNW,286,2.0,6.0,71,0.00,,,0.00,VWS V14.01,2013-02-15 08:54:00,
2013-02-15 02:59:00,9.3,2.1,30.25,NNW,330,3.0,6.0,72,0.00,,,0.00,VWS V14.01,2013-02-15 08:59:00,
2013-02-15 03:04:00,9.3,2.1,30.25,NNW,329,2.0,2.0,72,0.00,,,0.00,VWS V14.01,2013-02-15 09:04:00,
2013-02-15 03:09:00,9.3,2.1,30.25,WNW,299,2.0,4.0,72,0.00,,,0.00,VWS V14.01,2013-02-15 09:09:00,
2013-02-15 03:14:00,9.2,2.0,30.25,WSW,245,0.0,6.0,72,0.00,,,0.00,VWS V14.01,2013-02-15 09:14:00,
2013-02-15 03:19:00,9.1,2.2,30.26,West,259,3.0,6.0,73,0.00,,,0.00,VWS V14.01,2013-02-15 09:19:00,
2013-02-15 03:24:00,8.9,2.0,30.26,West,261,0.0,6.0,73,0.00,,,0.00,VWS V14.01,2013-02-15 09:24:00,
2013-02-15 03:30:00,8.8,1.9,30.25,West,263,2.0,7.0,73,0.00,,,0.00,VWS V14.01,2013-02-15 09:30:00,
2013-02-15 03:35:00,8.7,1.8,30.26,West,262,0.0,6.0,73,0.00,,,0.00,VWS V14.01,2013-02-15 09:35:00,
2013-02-15 03:40:00,8.5,1.9,30.26,WSW,258,2.0,6.0,74,0.00,,,0.00,VWS V14.01,2013-02-15 09:40:00,
2013-02-15 03:45:00,8.5,1.9,30.26,WSW,246,0.0,6.0,74,0.00,,,0.00,VWS V14.01,2013-02-15 09:45:00,
2013-02-15 03:50:00,8.5,2.2,30.26,WSW,255,3.0,6.0,75,0.00,,,0.00,VWS V14.01,2013-02-15 09:50:00,
2013-02-15 03:55:00,8.4,2.1,30.26,West,264,3.0,6.0,75,0.00,,,0.00,VWS V14.01,2013-02-15 09:55:00,
2013-02-15 04:00:00,8.3,2.3,30.26,West,265,3.0,6.0,76,0.00,,,0.00,VWS V14.01,2013-02-15 10:00:00,
2013-02-15 04:05:00,8.3,2.3,30.26,West,274,0.0,7.0,76,0.00,,,0.00,VWS V14.01,2013-02-15 10:05:00,
2013-02-15 04:10:00,8.3,2.3,30.26,West,276,1.0,7.0,76,0.00,,,0.00,VWS V14.01,2013-02-15 10:10:00,
2013-02-15 04:15:00,8.3,2.3,30.26,West,276,1.0,7.0,76,0.00,,,0.00,VWS V14.01,2013-02-15 10:15:00,
2013-02-15 04:20:00,8.3,2.3,30.26,WNW,283,0.0,7.0,76,0.00,,,0.00,VWS V14.01,2013-02-15 10:20:00,
2013-02-15 04:25:00,8.4,2.4,30.26,WNW,283,1.0,7.0,76,0.00,,,0.00,VWS V14.01,2013-02-15 10:25:00,
2013-02-15 04:31:00,8.4,2.4,30.27,WNW,285,0.0,2.0,76,0.00,,,0.00,VWS V14.01,2013-02-15 10:31:00,
2013-02-15 04:36:00,8.3,2.3,30.27,West,272,1.0,5.0,76,0.00,,,0.00,VWS V14.01,2013-02-15 10:36:00,
2013-02-15 04:41:00,8.1,2.1,30.27,West,272,0.0,5.0,76,0.00,,,0.00,VWS V14.01,2013-02-15 10:41:00,
2013-02-15 04:46:00,8.0,2.0,30.27,West,277,3.0,6.0,76,0.00,,,0.00,VWS V14.01,2013-02-15 10:46:00,
2013-02-15 04:51:00,7.9,1.9,30.27,West,277,0.0,6.0,76,0.00,,,0.00,VWS V14.01,2013-02-15 10:51:00,
2013-02-15 04:56:00,7.7,2.0,30.27,West,276,0.0,7.0,77,0.00,,,0.00,VWS V14.01,2013-02-15 10:56:00,
2013-02-15 05:01:00,7.6,2.2,30.27,West,276,2.0,3.0,78,0.00,,,0.00,VWS V14.01,2013-02-15 11:01:00,
2013-02-15 05:06:00,7.4,2.0,30.27,West,276,1.0,5.0,78,0.00,,,0.00,VWS V14.01,2013-02-15 11:06:00,
2013-02-15 05:11:00,7.3,1.9,30.28,West,276,0.0,5.0,78,0.00,,,0.00,VWS V14.01,2013-02-15 11:11:00,
2013-02-15 05:16:00,7.3,1.9,30.28,West,276,0.0,5.0,78,0.00,,,0.00,VWS V14.01,2013-02-15 11:16:00,
2013-02-15 05:22:00,7.2,1.8,30.28,West,276,4.0,5.0,78,0.00,,,0.00,VWS V14.01,2013-02-15 11:22:00,
2013-02-15 05:27:00,7.1,1.7,30.28,West,278,0.0,7.0,78,0.00,,,0.00,VWS V14.01,2013-02-15 11:27:00,
2013-02-15 05:32:00,7.1,2.0,30.28,West,278,1.0,4.0,79,0.00,,,0.00,VWS V14.01,2013-02-15 11:32:00,
2013-02-15 05:37:00,7.0,1.9,30.28,West,278,3.0,5.0,79,0.00,,,0.00,VWS V14.01,2013-02-15 11:37:00,
2013-02-15 05:42:00,6.9,1.8,30.28,West,278,2.0,5.0,79,0.00,,,0.00,VWS V14.01,2013-02-15 11:42:00,
2013-02-15 05:47:00,6.8,1.7,30.28,West,278,0.0,6.0,79,0.00,,,0.00,VWS V14.01,2013-02-15 11:47:00,
2013-02-15 05:52:00,6.7,1.6,30.29,WNW,295,3.0,6.0,79,0.00,,,0.00,VWS V14.01,2013-02-15 11:52:00,
2013-02-15 05:57:00,6.5,1.4,30.29,WNW,291,0.0,6.0,79,0.00,,,0.00,VWS V14.01,2013-02-15 11:57:00,
2013-02-15 06:02:00,6.4,1.6,30.29,WNW,283,2.0,5.0,80,0.00,,,0.00,VWS V14.01,2013-02-15 12:02:00,
2013-02-15 06:07:00,6.3,1.5,30.29,West,267,0.0,5.0,80,0.00,,,0.00,VWS V14.01,2013-02-15 12:07:00,
2013-02-15 06:13:00,6.2,1.4,30.29,West,279,2.0,6.0,80,0.00,,,0.00,VWS V14.01,2013-02-15 12:13:00,
2013-02-15 06:18:00,6.0,1.2,30.29,West,279,0.0,6.0,80,0.00,,,0.00,VWS V14.01,2013-02-15 12:18:00,
2013-02-15 06:23:00,5.9,1.1,30.30,West,276,5.0,6.0,80,0.00,,,0.00,VWS V14.01,2013-02-15 12:23:00,
2013-02-15 06:28:00,5.9,1.1,30.30,West,277,3.0,6.0,80,0.00,,,0.00,VWS V14.01,2013-02-15 12:28:00,
2013-02-15 06:33:00,5.8,1.2,30.30,West,277,0.0,5.0,81,0.00,,,0.00,VWS V14.01,2013-02-15 12:33:00,
2013-02-15 06:38:00,5.8,1.2,30.30,West,276,2.0,5.0,81,0.00,,,0.00,VWS V14.01,2013-02-15 12:38:00,
2013-02-15 06:43:00,5.6,1.0,30.30,West,276,0.0,5.0,81,0.00,,,0.00,VWS V14.01,2013-02-15 12:43:00,
2013-02-15 06:48:00,5.6,1.0,30.30,West,277,0.0,5.0,81,0.00,,,0.00,VWS V14.01,2013-02-15 12:48:00,
2013-02-15 06:53:00,5.6,1.0,30.30,West,278,0.0,5.0,81,0.00,,,0.00,VWS V14.01,2013-02-15 12:53:00,
2013-02-15 06:58:00,5.5,0.9,30.30,West,278,1.0,5.0,81,0.00,,,0.00,VWS V14.01,2013-02-15 12:58:00,
2013-02-15 07:03:00,5.5,0.9,30.30,West,277,2.0,3.0,81,0.00,,,0.00,VWS V14.01,2013-02-15 13:03:00,
2013-02-15 07:09:00,5.5,0.9,30.31,West,276,3.0,5.0,81,0.00,,,0.00,VWS V14.01,2013-02-15 13:09:00,
2013-02-15 07:14:00,5.4,0.9,30.31,West,276,1.0,5.0,81,0.00,,,0.00,VWS V14.01,2013-02-15 13:14:00,
2013-02-15 07:19:00,5.5,0.9,30.31,West,272,0.0,5.0,81,0.00,,,0.00,VWS V14.01,2013-02-15 13:19:00,
2013-02-15 07:24:00,5.5,0.9,30.31,West,272,0.0,5.0,81,0.00,,,0.00,VWS V14.01,2013-02-15 13:24:00,
2013-02-15 07:29:00,5.5,0.9,30.32,West,272,1.0,5.0,81,0.00,,,0.00,VWS V14.01,2013-02-15 13:29:00,
2013-02-15 07:34:00,5.6,1.0,30.32,West,273,2.0,4.0,81,0.00,,,0.00,VWS V14.01,2013-02-15 13:34:00,
2013-02-15 07:39:00,5.8,1.2,30.32,West,274,2.0,5.0,81,0.00,,,0.00,VWS V14.01,2013-02-15 13:39:00,
2013-02-15 07:44:00,5.9,1.3,30.32,West,274,0.0,5.0,81,0.00,,,0.00,VWS V14.01,2013-02-15 13:44:00,
2013-02-15 07:49:00,6.0,1.4,30.33,WSW,251,0.0,5.0,81,0.00,,,0.00,VWS V14.01,2013-02-15 13:49:00,
2013-02-15 07:54:00,6.0,1.2,30.33,WSW,251,0.0,5.0,80,0.00,,,0.00,VWS V14.01,2013-02-15 13:54:00,
2013-02-15 08:00:00,6.1,1.3,30.33,West,279,3.0,6.0,80,0.00,,,0.00,VWS V14.01,2013-02-15 14:00:00,
2013-02-15 08:05:00,6.2,1.4,30.33,West,279,0.0,5.0,80,0.00,,,0.00,VWS V14.01,2013-02-15 14:05:00,
2013-02-15 08:10:00,6.3,1.5,30.33,West,276,0.0,6.0,80,0.00,,,0.00,VWS V14.01,2013-02-15 14:10:00,
2013-02-15 08:15:00,6.5,1.7,30.33,West,276,2.0,6.0,80,0.00,,,0.00,VWS V14.01,2013-02-15 14:15:00,
2013-02-15 08:20:00,6.7,1.6,30.34,West,279,0.0,6.0,79,0.00,,,0.00,VWS V14.01,2013-02-15 14:20:00,
2013-02-15 08:25:00,6.9,1.8,30.34,West,278,2.0,6.0,79,0.00,,,0.00,VWS V14.01,2013-02-15 14:25:00,
2013-02-15 08:30:00,7.1,2.0,30.34,WNW,289,4.0,7.0,79,0.00,,,0.00,VWS V14.01,2013-02-15 14:30:00,
2013-02-15 08:35:00,7.3,2.2,30.34,West,264,4.0,5.0,79,0.00,,,0.00,VWS V14.01,2013-02-15 14:35:00,
2013-02-15 08:40:00,7.6,2.2,30.34,NW,312,3.0,7.0,78,0.00,,,0.00,VWS V14.01,2013-02-15 14:40:00,
2013-02-15 08:45:00,7.7,2.0,30.35,West,267,7.0,8.0,77,0.00,,,0.00,VWS V14.01,2013-02-15 14:45:00,
2013-02-15 08:50:00,7.9,2.2,30.35,NW,315,0.0,8.0,77,0.00,,,0.00,VWS V14.01,2013-02-15 14:50:00,
2013-02-15 08:56:00,8.2,2.2,30.35,WNW,291,0.0,8.0,76,0.00,,,0.00,VWS V14.01,2013-02-15 14:56:00,
2013-02-15 09:01:00,8.4,2.4,30.35,WNW,291,5.0,6.0,76,0.00,,,0.00,VWS V14.01,2013-02-15 15:01:00,
2013-02-15 09:06:00,8.5,2.2,30.35,NW,312,4.0,6.0,75,0.00,,,0.00,VWS V14.01,2013-02-15 15:06:00,
2013-02-15 09:11:00,8.6,2.6,30.35,NNW,335,4.0,7.0,76,0.00,,,0.00,VWS V14.01,2013-02-15 15:11:00,
2013-02-15 09:16:00,8.8,2.5,30.35,NW,313,0.0,7.0,75,0.00,,,0.00,VWS V14.01,2013-02-15 15:16:00,
2013-02-15 09:21:00,9.0,2.7,30.36,NW,320,4.0,7.0,75,0.00,,,0.00,VWS V14.01,2013-02-15 15:21:00,
2013-02-15 09:26:00,9.2,2.6,30.36,WNW,302,1.0,7.0,74,0.00,,,0.00,VWS V14.01,2013-02-15 15:26:00,
2013-02-15 09:31:00,9.5,2.9,30.36,West,281,5.0,6.0,74,0.00,,,0.00,VWS V14.01,2013-02-15 15:31:00,
2013-02-15 09:36:00,9.5,2.6,30.36,WNW,287,0.0,9.0,73,0.00,,,0.00,VWS V14.01,2013-02-15 15:36:00,
2013-02-15 09:42:00,9.7,2.8,30.36,NNW,338,0.0,9.0,73,0.00,,,0.00,VWS V14.01,2013-02-15 15:42:00,
2013-02-15 09:47:00,10.1,3.2,30.36,NNW,334,0.0,9.0,73,0.00,,,0.00,VWS V14.01,2013-02-15 15:47:00,
2013-02-15 09:52:00,10.6,3.4,30.36,NW,312,3.0,9.0,72,0.00,,,0.00,VWS V14.01,2013-02-15 15:52:00,
2013-02-15 09:57:00,10.9,3.7,30.36,WNW,285,0.0,9.0,72,0.00,,,0.00,VWS V14.01,2013-02-15 15:57:00,
2013-02-15 10:02:00,11.4,3.8,30.36,NW,304,2.0,5.0,71,0.00,,,0.00,VWS V14.01,2013-02-15 16:02:00,
2013-02-15 10:07:00,11.8,3.9,30.36,NNW,333,0.0,5.0,70,0.00,,,0.00,VWS V14.01,2013-02-15 16:07:00,
2013-02-15 10:12:00,11.9,3.7,30.36,WNW,295,7.0,8.0,69,0.00,,,0.00,VWS V14.01,2013-02-15 16:12:00,
2013-02-15 10:17:00,11.7,3.5,30.36,NW,316,0.0,8.0,69,0.00,,,0.00,VWS V14.01,2013-02-15 16:17:00,
2013-02-15 10:22:00,11.7,3.5,30.36,NNW,333,2.0,8.0,69,0.00,,,0.00,VWS V14.01,2013-02-15 16:22:00,
2013-02-15 10:27:00,11.8,3.6,30.36,NW,308,3.0,8.0,69,0.00,,,0.00,VWS V14.01,2013-02-15 16:27:00,
2013-02-15 10:32:00,11.8,3.3,30.36,North,354,1.0,6.0,68,0.00,,,0.00,VWS V14.01,2013-02-15 16:32:00,
2013-02-15 10:38:00,11.9,3.7,30.36,WNW,286,0.0,8.0,69,0.00,,,0.00,VWS V14.01,2013-02-15 16:38:00,
2013-02-15 10:43:00,12.0,3.8,30.36,West,281,2.0,8.0,69,0.00,,,0.00,VWS V14.01,2013-02-15 16:43:00,
2013-02-15 10:48:00,12.1,3.6,30.36,NNW,331,0.0,8.0,68,0.00,,,0.00,VWS V14.01,2013-02-15 16:48:00,
2013-02-15 10:53:00,12.4,3.9,30.36,WNW,299,5.0,8.0,68,0.00,,,0.00,VWS V14.01,2013-02-15 16:53:00,
2013-02-15 10:58:00,12.5,4.0,30.36,WNW,293,5.0,8.0,68,0.00,,,0.00,VWS V14.01,2013-02-15 16:58:00,
2013-02-15 11:03:00,12.5,4.0,30.36,NNW,335,3.0,5.0,68,0.00,,,0.00,VWS V14.01,2013-02-15 17:03:00,
2013-02-15 11:08:00,12.8,4.2,30.36,WNW,286,2.0,7.0,68,0.00,,,0.00,VWS V14.01,2013-02-15 17:08:00,
2013-02-15 11:13:00,13.1,4.5,30.36,WNW,295,6.0,9.0,68,0.00,,,0.00,VWS V14.01,2013-02-15 17:13:00,
2013-02-15 11:18:00,13.3,4.7,30.36,WNW,293,0.0,11.0,68,0.00,,,0.00,VWS V14.01,2013-02-15 17:18:00,
2013-02-15 11:23:00,13.6,5.0,30.36,WNW,297,2.0,11.0,68,0.00,,,0.00,VWS V14.01,2013-02-15 17:23:00,
2013-02-15 11:28:00,13.7,4.8,30.36,NW,318,0.0,11.0,67,0.00,,,0.00,VWS V14.01,2013-02-15 17:28:00,
2013-02-15 11:34:00,14.0,5.4,30.36,West,262,8.0,8.0,68,0.00,,,0.00,VWS V14.01,2013-02-15 17:34:00,
2013-02-15 11:39:00,14.3,5.7,30.36,NE,51,3.0,9.0,68,0.00,,,0.00,VWS V14.01,2013-02-15 17:39:00,
2013-02-15 11:44:00,14.3,5.4,30.36,NNW,330,4.0,9.0,67,0.00,,,0.00,VWS V14.01,2013-02-15 17:44:00,
2013-02-15 11:49:00,14.4,6.1,30.36,WNW,295,6.0,11.0,69,0.00,,,0.00,VWS V14.01,2013-02-15 17:49:00,
2013-02-15 11:54:00,14.4,5.8,30.36,NNW,332,3.0,11.0,68,0.00,,,0.00,VWS V14.01,2013-02-15 17:54:00,
2013-02-15 11:59:00,14.4,5.8,30.36,WNW,291,4.0,11.0,68,0.00,,,0.00,VWS V14.01,2013-02-15 17:59:00,
2013-02-15 12:04:00,14.7,6.1,30.36,NW,315,0.0,10.0,68,0.00,,,0.00,VWS V14.01,2013-02-15 18:04:00,
2013-02-15 12:09:00,14.8,5.8,30.35,NNW,332,14.0,14.0,67,0.00,,,0.00,VWS V14.01,2013-02-15 18:09:00,
2013-02-15 12:14:00,15.0,6.0,30.35,NNW,328,2.0,14.0,67,0.00,,,0.00,VWS V14.01,2013-02-15 18:14:00,
2013-02-15 12:19:00,15.0,6.0,30.35,North,8,6.0,14.0,67,0.00,,,0.00,VWS V14.01,2013-02-15 18:19:00,
2013-02-15 12:25:00,15.1,5.5,30.35,East,83,0.0,14.0,65,0.00,,,0.00,VWS V14.01,2013-02-15 18:25:00,
2013-02-15 12:30:00,15.2,5.9,30.35,West,276,6.0,14.0,66,0.00,,,0.00,VWS V14.01,2013-02-15 18:30:00,
2013-02-15 12:35:00,15.3,5.0,30.35,WNW,296,3.0,10.0,63,0.00,,,0.00,VWS V14.01,2013-02-15 18:35:00,
2013-02-15 12:40:00,15.5,4.8,30.35,NW,319,4.0,10.0,62,0.00,,,0.00,VWS V14.01,2013-02-15 18:40:00,
2013-02-15 12:45:00,15.7,5.0,30.35,WNW,290,2.0,10.0,62,0.00,,,0.00,VWS V14.01,2013-02-15 18:45:00,
2013-02-15 12:50:00,16.0,5.6,30.35,WNW,288,1.0,10.0,63,0.00,,,0.00,VWS V14.01,2013-02-15 18:50:00,
2013-02-15 12:55:00,16.2,5.8,30.35,West,272,0.0,10.0,63,0.00,,,0.00,VWS V14.01,2013-02-15 18:55:00,
2013-02-15 13:00:00,16.1,4.7,30.35,WNW,295,3.0,5.0,60,0.00,,,0.00,VWS V14.01,2013-02-15 19:00:00,
2013-02-15 13:05:00,16.0,4.9,30.35,WNW,285,5.0,6.0,61,0.00,,,0.00,VWS V14.01,2013-02-15 19:05:00,
2013-02-15 13:10:00,16.2,5.8,30.35,WNW,299,2.0,6.0,63,0.00,,,0.00,VWS V14.01,2013-02-15 19:10:00,
2013-02-15 13:15:00,16.4,5.7,30.35,WNW,299,4.0,8.0,62,0.00,,,0.00,VWS V14.01,2013-02-15 19:15:00,
2013-02-15 13:21:00,16.6,5.5,30.34,WNW,292,3.0,9.0,61,0.00,,,0.00,VWS V14.01,2013-02-15 19:21:00,
2013-02-15 13:26:00,16.8,6.1,30.34,WNW,285,6.0,9.0,62,0.00,,,0.00,VWS V14.01,2013-02-15 19:26:00,
2013-02-15 13:31:00,17.2,6.8,30.34,WNW,291,3.0,3.0,63,0.00,,,0.00,VWS V14.01,2013-02-15 19:31:00,
2013-02-15 13:36:00,17.4,6.6,30.34,WNW,291,6.0,10.0,62,0.00,,,0.00,VWS V14.01,2013-02-15 19:36:00,
2013-02-15 13:41:00,17.3,6.5,30.34,WNW,285,4.0,10.0,62,0.00,,,0.00,VWS V14.01,2013-02-15 19:41:00,
2013-02-15 13:46:00,17.3,6.9,30.34,West,279,3.0,11.0,63,0.00,,,0.00,VWS V14.01,2013-02-15 19:46:00,
2013-02-15 13:51:00,17.3,6.2,30.35,West,265,5.0,11.0,61,0.00,,,0.00,VWS V14.01,2013-02-15 19:51:00,
2013-02-15 13:56:00,17.4,6.3,30.35,WNW,289,5.0,11.0,61,0.00,,,0.00,VWS V14.01,2013-02-15 19:56:00,
2013-02-15 14:01:00,17.6,6.1,30.35,West,264,7.0,7.0,60,0.00,,,0.00,VWS V14.01,2013-02-15 20:01:00,
2013-02-15 14:06:00,17.5,5.6,30.35,WNW,284,3.0,9.0,59,0.00,,,0.00,VWS V14.01,2013-02-15 20:06:00,
2013-02-15 14:11:00,17.5,6.0,30.35,WNW,300,3.0,9.0,60,0.00,,,0.00,VWS V14.01,2013-02-15 20:11:00,
2013-02-15 14:16:00,17.6,5.3,30.35,WNW,285,0.0,11.0,58,0.00,,,0.00,VWS V14.01,2013-02-15 20:16:00,
2013-02-15 14:22:00,17.6,5.3,30.34,WSW,249,0.0,11.0,58,0.00,,,0.00,VWS V14.01,2013-02-15 20:22:00,
2013-02-15 14:27:00,17.7,6.2,30.34,WNW,286,3.0,11.0,60,0.00,,,0.00,VWS V14.01,2013-02-15 20:27:00,
2013-02-15 14:31:00,17.8,6.6,30.34,WNW,285,0.0,4.0,61,0.00,,,0.00,VWS V14.01,2013-02-15 20:31:00,
2013-02-15 14:37:00,17.8,5.9,30.34,West,281,0.0,8.0,59,0.00,,,0.00,VWS V14.01,2013-02-15 20:37:00,
2013-02-15 14:42:00,17.9,6.7,30.34,WNW,288,1.0,8.0,61,0.00,,,0.00,VWS V14.01,2013-02-15 20:42:00,
2013-02-15 14:47:00,18.0,6.5,30.34,West,264,3.0,11.0,60,0.00,,,0.00,VWS V14.01,2013-02-15 20:47:00,
2013-02-15 14:52:00,18.1,6.6,30.34,West,281,5.0,11.0,60,0.00,,,0.00,VWS V14.01,2013-02-15 20:52:00,
2013-02-15 14:57:00,18.1,6.6,30.35,West,263,6.0,11.0,60,0.00,,,0.00,VWS V14.01,2013-02-15 20:57:00,
2013-02-15 15:02:00,18.1,6.2,30.34,WNW,300,5.0,9.0,59,0.00,,,0.00,VWS V14.01,2013-02-15 21:02:00,
2013-02-15 15:07:00,18.0,6.1,30.34,WNW,288,5.0,9.0,59,0.00,,,0.00,VWS V14.01,2013-02-15 21:07:00,
2013-02-15 15:12:00,17.8,5.9,30.35,WNW,291,2.0,10.0,59,0.00,,,0.00,VWS V14.01,2013-02-15 21:12:00,
2013-02-15 15:17:00,17.8,5.9,30.35,West,270,4.0,10.0,59,0.00,,,0.00,VWS V14.01,2013-02-15 21:17:00,
2013-02-15 15:22:00,17.8,6.3,30.35,West,277,0.0,10.0,60,0.00,,,0.00,VWS V14.01,2013-02-15 21:22:00,
2013-02-15 15:27:00,18.0,6.5,30.35,WNW,283,0.0,10.0,60,0.00,,,0.00,VWS V14.01,2013-02-15 21:27:00,
2013-02-15 15:32:00,18.0,5.7,30.35,WNW,283,3.0,6.0,58,0.00,,,0.00,VWS V14.01,2013-02-15 21:32:00,
2013-02-15 15:38:00,18.2,6.3,30.35,WSW,244,3.0,6.0,59,0.00,,,0.00,VWS V14.01,2013-02-15 21:38:00,
2013-02-15 15:43:00,18.2,6.3,30.35,West,266,4.0,11.0,59,0.00,,,0.00,VWS V14.01,2013-02-15 21:43:00,
2013-02-15 15:48:00,18.1,6.2,30.35,West,278,4.0,11.0,59,0.00,,,0.00,VWS V14.01,2013-02-15 21:48:00,
2013-02-15 15:53:00,17.9,6.4,30.35,West,267,3.0,11.0,60,0.00,,,0.00,VWS V14.01,2013-02-15 21:53:00,
2013-02-15 15:58:00,17.7,6.2,30.35,WSW,257,3.0,11.0,60,0.00,,,0.00,VWS V14.01,2013-02-15 21:58:00,
2013-02-15 16:03:00,17.7,6.2,30.35,WSW,253,7.0,8.0,60,0.00,,,0.00,VWS V14.01,2013-02-15 22:03:00,
2013-02-15 16:08:00,17.5,6.0,30.35,WNW,301,0.0,12.0,60,0.00,,,0.00,VWS V14.01,2013-02-15 22:08:00,
2013-02-15 16:13:00,17.2,5.7,30.36,WSW,245,4.0,12.0,60,0.00,,,0.00,VWS V14.01,2013-02-15 22:13:00,
2013-02-15 16:18:00,17.0,5.9,30.35,West,278,0.0,12.0,61,0.00,,,0.00,VWS V14.01,2013-02-15 22:18:00,
2013-02-15 16:23:00,16.9,5.8,30.35,WNW,289,9.0,12.0,61,0.00,,,0.00,VWS V14.01,2013-02-15 22:23:00,
2013-02-15 16:28:00,16.7,5.6,30.35,WSW,251,2.0,13.0,61,0.00,,,0.00,VWS V14.01,2013-02-15 22:28:00,
2013-02-15 16:33:00,16.6,5.5,30.35,WNW,288,4.0,11.0,61,0.00,,,0.00,VWS V14.01,2013-02-15 22:33:00,
2013-02-15 16:38:00,16.5,5.8,30.36,West,277,0.0,11.0,62,0.00,,,0.00,VWS V14.01,2013-02-15 22:38:00,
2013-02-15 16:43:00,16.3,5.2,30.36,WSW,255,5.0,11.0,61,0.00,,,0.00,VWS V14.01,2013-02-15 22:43:00,
2013-02-15 16:48:00,16.2,5.1,30.36,West,270,2.0,11.0,61,0.00,,,0.00,VWS V14.01,2013-02-15 22:48:00,
2013-02-15 16:54:00,16.0,5.3,30.36,West,276,4.0,11.0,62,0.00,,,0.00,VWS V14.01,2013-02-15 22:54:00,
2013-02-15 16:59:00,15.9,5.2,30.36,WSW,241,3.0,11.0,62,0.00,,,0.00,VWS V14.01,2013-02-15 22:59:00,
2013-02-15 17:04:00,15.8,5.4,30.36,WNW,296,4.0,8.0,63,0.00,,,0.00,VWS V14.01,2013-02-15 23:04:00,
2013-02-15 17:09:00,15.7,5.0,30.36,West,260,5.0,9.0,62,0.00,,,0.00,VWS V14.01,2013-02-15 23:09:00,
2013-02-15 17:14:00,15.5,5.2,30.36,WSW,237,6.0,10.0,63,0.00,,,0.00,VWS V14.01,2013-02-15 23:14:00,
2013-02-15 17:19:00,15.4,5.1,30.36,WSW,253,3.0,10.0,63,0.00,,,0.00,VWS V14.01,2013-02-15 23:19:00,
2013-02-15 17:24:00,15.2,4.9,30.36,WNW,290,3.0,10.0,63,0.00,,,0.00,VWS V14.01,2013-02-15 23:24:00,
2013-02-15 17:29:00,15.1,4.8,30.36,WSW,255,7.0,10.0,63,0.00,,,0.00,VWS V14.01,2013-02-15 23:29:00,
2013-02-15 17:34:00,15.0,4.7,30.36,West,272,3.0,6.0,63,0.00,,,0.00,VWS V14.01,2013-02-15 23:34:00,
2013-02-15 17:39:00,14.9,4.9,30.36,West,273,0.0,6.0,64,0.00,,,0.00,VWS V14.01,2013-02-15 23:39:00,
2013-02-15 17:44:00,14.8,4.8,30.36,WSW,240,2.0,6.0,64,0.00,,,0.00,VWS V14.01,2013-02-15 23:44:00,
2013-02-15 17:49:00,14.6,4.7,30.36,West,259,0.0,6.0,64,0.00,,,0.00,VWS V14.01,2013-02-15 23:49:00,
2013-02-15 17:54:00,14.4,4.5,30.36,West,263,0.0,6.0,64,0.00,,,0.00,VWS V14.01,2013-02-15 23:54:00,
2013-02-15 17:59:00,14.2,4.3,30.36,WSW,258,4.0,6.0,64,0.00,,,0.00,VWS V14.01,2013-02-15 23:59:00,
2013-02-15 18:05:00,14.0,4.4,30.36,West,264,1.0,5.0,65,0.00,,,0.00,VWS V14.01,2013-02-16 00:05:00,
2013-02-15 18:10:00,13.9,4.3,30.36,WSW,257,2.0,6.0,65,0.00,,,0.00,VWS V14.01,2013-02-16 00:10:00,
2013-02-15 18:15:00,13.7,4.1,30.36,West,259,0.0,7.0,65,0.00,,,0.00,VWS V14.01,2013-02-16 00:15:00,
2013-02-15 18:20:00,13.7,4.1,30.36,West,259,0.0,7.0,65,0.00,,,0.00,VWS V14.01,2013-02-16 00:20:00,
2013-02-15 18:25:00,13.6,4.0,30.36,West,259,0.0,7.0,65,0.00,,,0.00,VWS V14.01,2013-02-16 00:25:00,
2013-02-15 18:30:00,13.5,3.9,30.36,WSW,254,2.0,7.0,65,0.00,,,0.00,VWS V14.01,2013-02-16 00:30:00,
2013-02-15 18:35:00,13.4,3.8,30.36,WSW,255,0.0,3.0,65,0.00,,,0.00,VWS V14.01,2013-02-16 00:35:00,
2013-02-15 18:40:00,13.3,3.8,30.36,WSW,255,0.0,3.0,65,0.00,,,0.00,VWS V14.01,2013-02-16 00:40:00,
2013-02-15 18:45:00,13.2,4.0,30.36,WSW,254,0.0,3.0,66,0.00,,,0.00,VWS V14.01,2013-02-16 00:45:00,
2013-02-15 18:50:00,13.1,3.9,30.36,WSW,255,3.0,3.0,66,0.00,,,0.00,VWS V14.01,2013-02-16 00:50:00,
2013-02-15 18:55:00,13.0,4.1,30.36,WSW,255,2.0,4.0,67,0.00,,,0.00,VWS V14.01,2013-02-16 00:55:00,
2013-02-15 19:01:00,12.8,3.9,30.36,WSW,254,2.0,3.0,67,0.00,,,0.00,VWS V14.01,2013-02-16 01:01:00,
2013-02-15 19:06:00,12.7,3.8,30.35,WSW,253,0.0,5.0,67,0.00,,,0.00,VWS V14.01,2013-02-16 01:06:00,
2013-02-15 19:11:00,12.5,3.6,30.35,WSW,253,1.0,5.0,67,0.00,,,0.00,VWS V14.01,2013-02-16 01:11:00,
2013-02-15 19:16:00,12.4,3.5,30.35,WSW,253,0.0,5.0,67,0.00,,,0.00,VWS V14.01,2013-02-16 01:16:00,
2013-02-15 19:21:00,12.2,3.7,30.35,WSW,250,3.0,5.0,68,0.00,,,0.00,VWS V14.01,2013-02-16 01:21:00,
2013-02-15 19:26:00,12.1,3.6,30.35,WSW,249,0.0,5.0,68,0.00,,,0.00,VWS V14.01,2013-02-16 01:26:00,
2013-02-15 19:31:00,12.0,3.5,30.35,WSW,249,0.0,1.0,68,0.00,,,0.00,VWS V14.01,2013-02-16 01:31:00,
2013-02-15 19:36:00,11.8,3.6,30.35,WSW,249,0.0,4.0,69,0.00,,,0.00,VWS V14.01,2013-02-16 01:36:00,
2013-02-15 19:41:00,11.7,3.5,30.35,WSW,249,0.0,4.0,69,0.00,,,0.00,VWS V14.01,2013-02-16 01:41:00,
2013-02-15 19:46:00,11.5,3.3,30.35,WSW,249,0.0,4.0,69,0.00,,,0.00,VWS V14.01,2013-02-16 01:46:00,
2013-02-15 19:51:00,11.2,3.3,30.35,WSW,245,5.0,5.0,70,0.00,,,0.00,VWS V14.01,2013-02-16 01:51:00,
2013-02-15 19:56:00,11.0,3.5,30.35,WSW,240,6.0,6.0,71,0.00,,,0.00,VWS V14.01,2013-02-16 01:56:00,
2013-02-15 20:02:00,10.9,3.4,30.35,WSW,237,0.0,2.0,71,0.00,,,0.00,VWS V14.01,2013-02-16 02:02:00,
2013-02-15 20:07:00,10.8,3.6,30.35,WSW,238,3.0,8.0,72,0.00,,,0.00,VWS V14.01,2013-02-16 02:07:00,
2013-02-15 20:12:00,10.7,3.5,30.35,WSW,238,2.0,8.0,72,0.00,,,0.00,VWS V14.01,2013-02-16 02:12:00,
2013-02-15 20:17:00,10.4,3.2,30.34,WSW,245,0.0,8.0,72,0.00,,,0.00,VWS V14.01,2013-02-16 02:17:00,
2013-02-15 20:22:00,10.3,3.4,30.34,WSW,243,3.0,8.0,73,0.00,,,0.00,VWS V14.01,2013-02-16 02:22:00,
2013-02-15 20:27:00,10.1,3.2,30.34,WSW,258,7.0,8.0,73,0.00,,,0.00,VWS V14.01,2013-02-16 02:27:00,
2013-02-15 20:32:00,9.9,3.0,30.35,WSW,257,2.0,8.0,73,0.00,,,0.00,VWS V14.01,2013-02-16 02:32:00,
2013-02-15 20:37:00,9.8,2.9,30.35,WSW,239,5.0,8.0,73,0.00,,,0.00,VWS V14.01,2013-02-16 02:37:00,
2013-02-15 20:42:00,9.6,2.7,30.35,SW,222,3.0,8.0,73,0.00,,,0.00,VWS V14.01,2013-02-16 02:42:00,
2013-02-15 20:47:00,9.5,2.9,30.35,SW,230,4.0,8.0,74,0.00,,,0.00,VWS V14.01,2013-02-16 02:47:00,
2013-02-15 20:53:00,9.3,2.7,30.35,SW,222,2.0,8.0,74,0.00,,,0.00,VWS V14.01,2013-02-16 02:53:00,
2013-02-15 20:58:00,9.1,2.5,30.34,WSW,254,2.0,8.0,74,0.00,,,0.00,VWS V14.01,2013-02-16 02:58:00,
2013-02-15 21:03:00,9.0,2.4,30.34,West,278,1.0,5.0,74,0.00,,,0.00,VWS V14.01,2013-02-16 03:03:00,
2013-02-15 21:08:00,8.9,2.3,30.35,WSW,258,0.0,5.0,74,0.00,,,0.00,VWS V14.01,2013-02-16 03:08:00,
2013-02-15 21:13:00,8.9,2.3,30.35,WSW,256,0.0,5.0,74,0.00,,,0.00,VWS V14.01,2013-02-16 03:13:00,
2013-02-15 21:18:00,8.7,2.1,30.35,WSW,243,1.0,6.0,74,0.00,,,0.00,VWS V14.01,2013-02-16 03:18:00,
2013-02-15 21:23:00,8.6,2.0,30.35,WSW,249,1.0,8.0,74,0.00,,,0.00,VWS V14.01,2013-02-16 03:23:00,
2013-02-15 21:28:00,8.4,1.8,30.35,West,276,1.0,8.0,74,0.00,,,0.00,VWS V14.01,2013-02-16 03:28:00,
2013-02-15 21:33:00,8.3,1.7,30.35,West,270,4.0,6.0,74,0.00,,,0.00,VWS V14.01,2013-02-16 03:33:00,
2013-02-15 21:38:00,8.2,1.6,30.35,West,267,5.0,7.0,74,0.00,,,0.00,VWS V14.01,2013-02-16 03:38:00,
2013-02-15 21:44:00,8.1,1.5,30.34,West,266,5.0,7.0,74,0.00,,,0.00,VWS V14.01,2013-02-16 03:44:00,
2013-02-15 21:49:00,8.0,1.5,30.34,West,264,2.0,7.0,74,0.00,,,0.00,VWS V14.01,2013-02-16 03:49:00,
2013-02-15 21:54:00,7.8,1.2,30.34,West,266,5.0,7.0,74,0.00,,,0.00,VWS V14.01,2013-02-16 03:54:00,
2013-02-15 21:59:00,7.6,1.4,30.34,West,278,2.0,7.0,75,0.00,,,0.00,VWS V14.01,2013-02-16 03:59:00,
2013-02-15 22:04:00,7.4,1.1,30.34,WNW,287,1.0,6.0,75,0.00,,,0.00,VWS V14.01,2013-02-16 04:04:00,
2013-02-15 22:09:00,7.2,1.0,30.34,WSW,246,2.0,9.0,75,0.00,,,0.00,VWS V14.01,2013-02-16 04:09:00,
2013-02-15 22:14:00,7.0,1.0,30.34,West,275,0.0,9.0,76,0.00,,,0.00,VWS V14.01,2013-02-16 04:14:00,
2013-02-15 22:19:00,6.8,0.9,30.34,West,265,4.0,9.0,76,0.00,,,0.00,VWS V14.01,2013-02-16 04:19:00,
2013-02-15 22:24:00,6.7,0.8,30.34,WSW,256,1.0,9.0,76,0.00,,,0.00,VWS V14.01,2013-02-16 04:24:00,
2013-02-15 22:29:00,6.5,0.6,30.35,West,277,3.0,9.0,76,0.00,,,0.00,VWS V14.01,2013-02-16 04:29:00,
2013-02-15 22:34:00,6.4,0.5,30.34,West,276,3.0,5.0,76,0.00,,,0.00,VWS V14.01,2013-02-16 04:34:00,
2013-02-15 22:39:00,6.2,0.6,30.34,West,276,2.0,5.0,77,0.00,,,0.00,VWS V14.01,2013-02-16 04:39:00,
2013-02-15 22:44:00,6.1,0.4,30.34,West,277,3.0,5.0,77,0.00,,,0.00,VWS V14.01,2013-02-16 04:44:00,
2013-02-15 22:49:00,6.0,0.3,30.34,West,260,5.0,5.0,77,0.00,,,0.00,VWS V14.01,2013-02-16 04:49:00,
2013-02-15 22:54:00,5.9,0.3,30.34,WSW,253,2.0,5.0,77,0.00,,,0.00,VWS V14.01,2013-02-16 04:54:00,
2013-02-15 23:00:00,5.8,0.2,30.34,West,260,1.0,6.0,77,0.00,,,0.00,VWS V14.01,2013-02-16 05:00:00,
2013-02-15 23:05:00,5.7,0.1,30.34,West,260,2.0,4.0,77,0.00,,,0.00,VWS V14.01,2013-02-16 05:05:00,
2013-02-15 23:10:00,5.6,0.2,30.34,West,264,4.0,5.0,78,0.00,,,0.00,VWS V14.01,2013-02-16 05:10:00,
2013-02-15 23:15:00,5.6,0.2,30.34,West,263,2.0,5.0,78,0.00,,,0.00,VWS V14.01,2013-02-16 05:15:00,
2013-02-15 23:20:00,5.5,0.1,30.34,West,262,0.0,5.0,78,0.00,,,0.00,VWS V14.01,2013-02-16 05:20:00,
2013-02-15 23:23:00,5.5,0.1,30.33,West,263,0.0,5.0,78,0.00,,,0.00,VWS V14.01,2013-02-16 05:23:00,
2013-02-15 23:28:00,5.4,0.0,30.33,West,263,0.0,5.0,78,0.00,,,0.00,VWS V14.01,2013-02-16 05:28:00,
2013-02-15 23:33:00,5.5,-0.1,30.34,West,263,0.0,0.0,77,0.00,,,0.00,VWS V14.01,2013-02-16 05:33:00,
2013-02-15 23:38:00,5.4,-0.2,30.33,West,262,0.0,0.0,77,0.00,,,0.00,VWS V14.01,2013-02-16 05:38:00,
2013-02-15 23:43:00,5.4,-0.2,30.33,West,262,0.0,3.0,77,0.00,,,0.00,VWS V14.01,2013-02-16 05:43:00,
2013-02-15 23:48:00,5.3,-0.3,30.33,West,263,1.0,3.0,77,0.00,,,0.00,VWS V14.01,2013-02-16 05:48:00,
2013-02-15 23:53:00,5.3,-0.3,30.33,West,263,1.0,3.0,77,0.00,,,0.00,VWS V14.01,2013-02-16 05:53:00,
2013-02-15 23:58:00,5.3,-0.3,30.33,West,263,0.0,3.0,77,0.00,,,0.00,VWS V14.01,2013-02-16 05:58:00,